Regional Weather Roundup
Issued by NWS

Home | Current Version | Previous Version | Text Only | Print | Product List | Glossary On
Versions: 1 2 3 4 5 6 7 8 9 10 11 12 13 14 15 16 17 18 19 20 21 22 23 24 25 26 27 28 29 30 31 32 33 34 35 36 37 38 39 40 41 42 43 44 45 46 47 48 49 50
000
ASUS42 KFFC 191103
RWRGA
WEATHER ROUNDUP FOR GEORGIA
NATIONAL WEATHER SERVICE PEACHTREE CITY GA
700 AM EDT FRI SEP 19 2014

NOTE: "FAIR" INDICATES FEW OR NO CLOUDS BELOW 12,000 FEET WITH NO
SIGNIFICANT WEATHER AND/OR OBSTRUCTIONS TO VISIBILITY.

* = USE WITH CAUTION. THE STATIONS MARKED WITH AN ASTERISK MAY NOT
REPORT WEATHER SUCH AS PRECIPITATION, FOG, OR THUNDER AND ARE NOT
QUALITY CONTROLLED BY NWS.

THE REMARK "TC" DENOTES TEMPERATURE READING IN DEGREES CELSIUS.

GAZ001>058-191200-
NORTH GEORGIA

CITY           SKY/WX    TMP DP  RH WIND       PRES   REMARKS
ATLANTA        CLOUDY    70  66  87 E6        30.04R
ATHENS         MOCLDY    66  65  96 NE6       30.05R
CHAMBLEE       MOCLDY    68  64  87 CALM      30.05R
PEACHTREE CITY CLOUDY    67  66  97 CALM      30.04R FOG
ROME           CLEAR     61  59  93 NE3       30.03R
WEST ATLANTA   MOCLDY    67  64  90 CALM      30.04R
GAINESVILLE    PTCLDY    66  63  90 E7        30.09R
CARTERSVILLE   PTCLDY    62  61  96 CALM      30.04R


CITY           SKY/WX    TMP DP  RH WIND       PRES   REMARKS
DALTON*        CLEAR     59  59 100 CALM      30.05R
LAWRENCEVILLE* CLEAR     66  59  77 NE6       30.05
MARIETTA       MOCLDY    67  66  96 VRB1      30.05R
KENNESAW*      PTCLDY    64  63  94 E6        30.06
$$

GAZ059>098-102>109-191200-
CENTRAL GEORGIA

CITY           SKY/WX    TMP DP  RH WIND       PRES   REMARKS
AUGUSTA-BUSH   MOCLDY    66  65  96 CALM      30.02R FOG
AUGUSTA-DANIEL MOCLDY    70  68  93 NE6       30.04R
COLUMBUS       CLOUDY    70  66  87 E3        30.00R
MACON          MOCLDY    64  64 100 CALM      30.01R
ROBINS AFB     MOCLDY    66  65  98 CALM      30.01R


CITY           SKY/WX    TMP DP  RH WIND       PRES   REMARKS
LAGRANGE*      CLOUDY    71  69  96 CALM      30.01R
SYLVANIA*      CLOUDY    71  70  98 CALM      30.02R FOG
MILLEDGEVILLE* MOCLDY    68  68 100 CALM      30.02R
$$

GAZ099>101-110>166-191200-
SOUTH GEORGIA

CITY           SKY/WX    TMP DP  RH WIND       PRES   REMARKS
SAVANNAH       MOCLDY    71  68  90 N3        30.00R
VALDOSTA       CLOUDY    71  69  93 CALM      29.97R
ALMA           MOCLDY    71  70  96 NE5       29.99R FOG
ST SIMONS      CLOUDY    75  67  76 E12       29.99R
FT STEWART     MOCLDY    70  69  95 N3        29.99R
ALBANY         MOCLDY    70  68  93 NE5       29.99S
HUNTER AFB     MOCLDY    71  70  98 N5        29.98R
MOODY AFB      CLOUDY    70  69  96 NE3       29.98R
BRUNSWICK      CLOUDY    73  72  94 N5        29.99R


CITY           SKY/WX    TMP DP  RH WIND       PRES   REMARKS
BAINBRIDGE*    CLOUDY    73  72  94 CALM      29.97R
MOULTRIE*      MOCLDY    72  70  94 NE3       29.98R
VIDALIA*       CLOUDY    70  70 100 E6        30.01R
WAYCROSS*      MOCLDY    74  74 100 CALM      29.99R FOG
DOUGLAS*       PTCLDY    73  72  94 NE5       30.01R
$$



USA.gov is the U.S. government's official web portal to all federal, state and local government web resources and services.